Back to catalog

STARLINK-37581

AliveCommunicationsVLEO
NORAD 69366·PAYLOAD·🇺🇸 United States

Launched Jun 4, 2026 from Cape Canaveral Space Force Station

Loading…

Next Passes (next 24 hours)

TLE

FreshSource: CelesTrak SupGP

Epoch: Sep 14, 2026, 15:13 UTC

1 69366C 26123P   26257.63451389  .00063588  00000+0  18806-2 0  2576
2 69366  53.1578 169.1846 0001193  80.0523 103.3568 15.34327981    18

Track STARLINK-37581 in real time with AllMySat

Download on the App Store